www.pogodaiklimat.ru

Погода и климат >> Архив погоды >> Австралия >> Северная территория >> Дейли Уотерс


ПОГОДА в Дейли Уотерс

  • Прогноз погоды в Дейли Уотерс
  • Монитор погоды в Дейли Уотерс

АРХИВ ПОГОДЫ в Дейли Уотерс

Время (UTC), дата Ветер
(напр.,м/с)
 
Видим.   Явления Облачность Т
(С)
Тd
(С)
f
(%)
Тe
(С)
Тes
(С)
Комфортность P
(гПа)
Po
(гПа)
Тmin
(С)
Tmax
(С)
R
(мм)
R24
(мм)
S
(см)
23 15.04 В 1 н/о н/о +26.1 +17.5 59 +30 +30 душно 1014.3 990.4
02 16.04 В 4 н/о н/о +32.7 +14.3 33 +34 +34 очень
жарко
1013.5 989.6 +17.7
05 16.04 В 3 н/о н/о +36.0 +9.5 20 +35 +35 очень
жарко
1009.7 985.9
08 16.04 В 3 н/о н/о +35.5 +9.8 21 +34 +34 очень
жарко
1009.3 985.5
11 16.04 СВ 1 н/о н/о +27.3 +10.5 35 +28 +28 жарко 1011.5 987.7
14 16.04 СВ 1 н/о н/о +23.8 +13.4 52 +26 +26 жарко 1012.8 988.9 +37.0
17 16.04 С 1 н/о н/о +24.5 +15.1 56 +27 +27 жарко 1012.4 988.5
20 16.04 штиль 0 н/о н/о +19.7 +15.1 75 +22 +22 комфорт 1012.7 988.8
23 16.04 С 2 н/о н/о +25.9 +20.5 72 +32 +32 очень
душно
1014.5 990.6
02 17.04 СВ 3 н/о н/о +32.9 +15.0 34 +35 +35 душно 1013.7 989.8 +19.3
05 17.04 Ю 2 н/о н/о +35.7 +13.2 26 +36 +36 очень
жарко
1010.3 986.5
08 17.04 ЮВ 3 н/о н/о +35.6 +11.9 24 +35 +35 очень
жарко
1009.8 986.0
11 17.04 В 2 н/о н/о +27.3 +12.5 40 +29 +29 жарко 1012.0 988.1
14 17.04 СВ 2 н/о н/о +26.4 +12.5 42 +28 +28 жарко 1013.3 989.4 +36.9
17 17.04 штиль 0 н/о н/о +21.4 +13.8 62 +24 +24 комфорт 1012.5 988.6
20 17.04 ЮВ 1 н/о н/о +19.5 +14.1 71 +22 +22 комфорт 1013.2 989.3
23 17.04 В 1 н/о н/о +25.9 +19.5 68 +31 +31 очень
душно
1014.6 990.7
02 18.04 СВ 1 н/о н/о +32.0 +16.3 39 +35 +35 очень
душно
1013.9 990.0 +19.2
05 18.04 В 4 н/о н/о +35.5 +11.8 24 +35 +35 очень
жарко
1010.6 986.8
08 18.04 СВ 6 н/о н/о +34.5 +10.4 23 +34 +34 очень
жарко
1010.2 986.4
11 18.04 В 2 н/о н/о +28.9 +11.0 33 +29 +29 жарко 1012.2 988.3
14 18.04 В 1 н/о н/о +24.8 +11.7 44 +26 +26 жарко 1013.5 989.6 +36.6
17 18.04 ЮВ 1 н/о н/о +20.8 +13.7 64 +25 +25 комфорт 1012.8 988.9
20 18.04 Ю 1 н/о н/о +18.9 +14.2 74 +21 +21 комфорт 1013.5 989.6
23 18.04 СВ 3 н/о н/о +25.7 +19.6 69 +31 +31 очень
душно
1014.8 990.9
02 19.04 В 5 н/о н/о +32.8 +12.9 30 +33 +33 жарко 1014.1 990.2 +18.7
05 19.04 В 3 н/о н/о +33.9 +10.5 24 +33 +33 жарко 1010.2 986.4
08 19.04 В 4 н/о н/о +33.8 +9.8 23 +33 +33 жарко 1009.3 985.5
11 19.04 В 3 н/о н/о +29.7 +10.8 31 +30 +30 жарко 1010.9 987.1
14 19.04 СВ 3 н/о н/о +25.4 +10.4 39 +26 +26 жарко 1012.0 988.1 +36.2
17 19.04 штиль 0 н/о н/о +19.2 +11.7 62 +20 +20 1011.7 987.9
20 19.04 штиль 0 н/о н/о +18.3 +13.4 73 +19 +19 1012.0 988.1
23 19.04 В 1 н/о н/о +24.5 +19.6 74 +30 +30 очень
душно
1013.6 989.7
02 20.04 СВ 5 н/о н/о +33.4 +10.7 25 +33 +33 жарко 1012.5 988.6 +17.9
05 20.04 СВ 3 н/о н/о +35.1 +8.0 19 +33 +33 жарко 1009.3 985.5
08 20.04 ЮВ 3 н/о н/о +34.6 +7.6 19 +33 +33 жарко 1008.6 984.8
11 20.04 В 1 н/о н/о +25.2 +9.1 36 +26 +26 жарко 1010.3 986.5
14 20.04 ЮВ 2 н/о н/о +24.2 +10.1 41 +25 +25 комфорт 1011.2 987.4 +36.5
17 20.04 штиль 0 н/о н/о +20.4 +11.9 58 +22 +22 комфорт 1010.5 986.7
20 20.04 штиль 0 н/о н/о +18.3 +12.7 70 +19 +19 1010.8 987.0
23 20.04 СВ 2 н/о н/о +25.9 +19.1 66 +31 +31 очень
душно
1012.3 988.4
02 21.04 ЮВ 3 н/о н/о +34.2 +13.1 28 +35 +35 очень
жарко
1012.0 988.1 +17.7
05 21.04 В 3 н/о н/о +35.8 +10.8 22 +35 +35 очень
жарко
1009.0 985.2
08 21.04 СВ 3 н/о н/о +34.1 +10.7 24 +33 +33 жарко 1008.8 985.0
11 21.04 В 1 н/о н/о +26.3 +12.0 41 +28 +28 жарко 1010.8 987.0
14 21.04 штиль 0 н/о н/о +24.0 +14.1 54 +26 +26 жарко 1011.6 987.8 +36.9
17 21.04 штиль 0 н/о н/о +22.0 +15.4 66 +26 +26 душно 1010.7 986.9
20 21.04 Ю 2 н/о н/о +20.3 +15.1 72 +24 +24 комфорт 1011.0 987.2
23 21.04 ЮВ 3 н/о н/о +27.6 +15.6 48 +31 +31 душно 1013.2 989.3
02 22.04 ЮВ 3 н/о н/о +33.5 +12.5 28 +34 +34 очень
жарко
1012.6 988.7 +19.9
05 22.04 ЮВ 4 н/о н/о +34.2 +8.8 21 +33 +33 жарко 1010.0 986.2
08 22.04 ЮВ 4 н/о н/о +33.9 +7.0 19 +32 +32 жарко 1010.2 986.4
11 22.04 ЮВ 2 н/о н/о +27.9 +7.2 27 +27 +27 жарко 1012.1 988.2
14 22.04 ЮВ 3 н/о н/о +26.0 +8.0 32 +26 +26 жарко 1012.9 989.0 +36.1
17 22.04 ЮВ 3 н/о н/о +25.2 +8.7 35 +26 +26 жарко 1012.4 988.5
20 22.04 ЮВ 3 н/о н/о +24.3 +9.5 39 +25 +25 комфорт 1013.2 989.3

 

Местоположение метеостанции Дейли Уотерс (Северная территория, Австралия): широта -16.25 долгота 133.37 высота над уровнем моря 211 м.

В архиве по умолчанию представлена погода в Дейли Уотерс за последнюю неделю. Архивные данные за месяц целиком и за предыдущие месяцы, начиная с января 2011 года, Вы можете получить, выбрав интересующий диапазон дат из раскрывающегося списка и нажав кнопку "Ввод!".


*Определитесь, кто Вы:
робот инопланетянин человек

Внимание! Время в таблицах - всемирное. Для получения местного времени необходимо прибавить поправку, которая равна 9.5 ч.

Смотрите также архив погоды в соседних городах и на ближайших метеорологических станциях:

Погода на Базе ВВС Delamere Weapons Range (Северная территория, Австралия) (165 км)
Погода в Тиндале (Северная территория, Австралия) (222 км)
Погода в Виктория-Ривер (Северная территория, Австралия) (251 км)
Погода в Аэропорту Макартур Ривер Майн (Северная территория, Австралия) (289 км)
Погода в Булман Уимол (Северная территория, Австралия) (305 км)
Погода в Манбуллу Ксиро (Северная территория, Австралия) (311 км)
Погода в Борролооле (Северная территория, Австралия) (314 км)
Погода на Центральном плато Арнем (Северная территория, Австралия) (326 км)
Погода на Маяке Кейп-Дон (Северная территория, Австралия) (357 км)
Погода на Острове Центр (Северная территория, Австралия) (371 км)

Пояснения к столбцам:

Ветер - указаны скорость ветра в м/с - средняя за 10 мин, порывы в срок и между сроками (в фигурных скобках) и направление, откуда дует ветер: С - северный, СВ - северо-восточный, В - восточный, ЮВ - юго-восточный, Ю - южный, ЮЗ - юго-западный, З - западный, СЗ - северо-западный.
Видимость - горизонтальная дальность видимости в метрах или километрах. При видимости от 1 до 10 км при отсутствии осадков обычно наблюдается дымка, при ухудшении видимости до 1 км и менее - туман. В сухую погоду видимость может ухудшаться дымом, пылью или мглою.
Явления - указаны атмосферные явления, наблюдавшиеся в срок или в последний час перед сроком; фигурными скобками обозначены явления, наблюдавшиеся между сроками (за 1-3 часа до срока); квадратными скобками обозначены град или гололедные отложения с указанием их диаметра в мм.
Облачность - указаны через наклонную черту общая и нижняя облачность в баллах и высота нижней границы облаков в метрах; квадратными скобками обозначены формы облаков: Ci - перистые, Cs - перисто-слоистые, Cc - перисто-кучевые, Ac - высококучевые, As - высокослоистые, Sc - слоисто-кучевые, Ns - слоисто-дождевые, Cu - кучевые, Cb - кучево-дождевые. Подробнее классификацию облаков см. в Атласе облаков (PDF).
T - Температура воздуха - температура, измеренная на высоте 2 м над землей.
Td - Температура точки росы - температура, при понижении до которой содержащийся в воздухе водяной пар достигнет насыщения.
f - Относительная влажность воздуха - влажноcть воздуха, измеренная на высоте 2 м над землей.
Te - Эффективная температура - температура, которую ощущает одетый по сезону человек в тени. Характеристика душности погоды. При расчете учитывается влияние влажности воздуха и скорости ветра на теплоощущения человека.
Tes - Эффективная температура на солнце - температура, которую ощущает человек, с поправкой на солнечный нагрев. Характеристика знойности погоды. Зависит от высоты солнца над горизонтом, облачности и скорости ветра. Ночью, в пасмурную погоду, а также при ветре 12 м/с и более поправка равна нулю.
P - Атмосферное давление - приведенное к уровню моря атмосферное давление.
Po - Атмосферное давление - измеренное на уровне метеостанции атмосферное давление.
Tmin - Минимальная температура - минимум температуры воздуха на высоте 2 м над землей.
Tmax - Максимальная температура - максимум температуры воздуха на высоте 2 м над землей.
R - Количество осадков - Количество выпавших осадков за период времени, мм. При наведении курсора мыши на число - период времени, за который выпало указанное количество осадков.
R24 - Количество осадков - Количество выпавших осадков за 24 часа, мм.
S - Снежный покров - Высота снежного покрова, см. При наведении курсора мыши на число - состояние снежного покрова и степень покрытия местности в баллах.